Daniel Valdes

Chefscout - Santiago Wanderers
19 Aug 2027
Donnerstag
Verarbeitung

Persönlichkeit

Anpassungsfähigkeit (19) Ehrgeiz (15) Kontroverse (13) Loyalität (8) Druck (14) Professionalität (18) Fairness (10) Temperament (4)

Profil

Trainerstil Demokratisch
Lizenz Nationale B
Entschlossenheit 8
Menschenführung 11
Motivation 11
Disziplin 11
Arbeitszufriedenheit
100%
Ermüdung
0%
Rolle Chefscout
Gehalt 15.4K p/W
Vertrag 14.03.2029

Leistung

Verhalten Gut
Trainingseffektivität
35%
Spielerentwicklung
30%
Verletzungsprävention
30%
Taktische Umsetzung
45%

Letzte Ereignisse

Nahm an einer Scouting-Besprechung teil 7T her
Nahm an einer Scouting-Besprechung teil 7T her
Nahm an einer Scouting-Besprechung teil 14T her
Nahm an einer Scouting-Besprechung teil 14T her
Nahm an einer Scouting-Besprechung teil 21T her
Nahm an einer Scouting-Besprechung teil 21T her
Nahm an einer Scouting-Besprechung teil 28T her
Nahm an einer Scouting-Besprechung teil 28T her

Aktuell beobachtet

129
Spieler Verein Status Fähigkeit Vertrauen Beobachtet Zuletzt beobachtet Letzte Stimme
Florentino Luís Ipswich Town Aktiv 139 / 133 40% 1 04.07.2027 -
Abdul Fatawu Leicester City Aktiv 144 / 149 40% 1 04.07.2027 -
Bastian Tapia Universidad de Chile Verloren 86 / 105 55% 1 21.06.2027 -
Cristian Paz Deportivo Riestra Aktiv 108 / 121 40% 2 22.12.2026 -
Andrea Carboni Monza Aktiv 112 / 131 40% 1 22.12.2026 -
Josh Tymon Swansea City Aktiv 141 / 101 40% 1 15.12.2026 -
Lukáš Červ Viktoria Plzen Aktiv 129 / 117 40% 1 15.12.2026 -
Enzo Martínez Gimnasia La Plata Aktiv 117 / 125 40% 1 07.12.2026 -
Rubén Duarte Legia Aktiv 121 / 128 40% 1 01.12.2026 -
Juan Luis Alfaro Banfield Aktiv 113 / 114 40% 1 01.12.2026 -
Juan Rocca Gimnasia y Tiro Aktiv 116 / 94 40% 2 29.11.2026 -
Ramiro Ruiz Rodríguez Atlético Tucumán Aktiv 132 / 109 40% 8 29.11.2026 -
Yeison Moreno Hajduk Split Aktiv 117 / 121 40% 1 28.11.2026 -
Nicolás Contín MFK Ruzomberok Aktiv 134 / 126 40% 1 27.11.2026 Mehr Infos nötig
Tomás Molina Argentinos Juniors Aktiv 133 / 126 40% 1 27.11.2026 Mehr Infos nötig
Rodrigo Bogarín Barracas Central Aktiv 128 / 108 40% 3 25.11.2026 -
Augusto Berrondo Tristán Suárez Aktiv 106 / 110 40% 1 24.11.2026 -
Denzel Jubitana Neftchi Aktiv 108 / 111 40% 1 22.11.2026 -
Ekain Orobengoa Real Sociedad Aktiv 82 / 90 40% 1 22.11.2026 -
Lucas Varaldo Central Córdoba SdE Aktiv 118 / 117 40% 1 20.11.2026 -
Carlos Gugenheim Almirante Brown Aktiv 114 / 123 40% 3 17.11.2026 -
Santiago Rodríguez Gimnasia y Esgrima Aktiv 113 / 122 40% 2 17.11.2026 -
Jonás Acevedo Instituto Aktiv 115 / 121 40% 1 16.11.2026 -
Enzo Avaro Odd Aktiv 115 / 104 40% 5 14.11.2026 -
Luciano Cosentino Wanderers Aktiv 119 / 119 40% 1 14.11.2026 -
Leandro Suhr Boston River Aktiv 114 / 108 40% 1 13.11.2026 -
Ignacio Valsangiácomo Racing Aktiv 92 / 109 40% 1 13.11.2026 -
Matías Cóccaro Newell's Old Boys Aktiv 117 / 108 40% 1 13.11.2026 -
Sergio Riffo NK Zavrc Aktiv 102 / 71 40% 2 09.11.2026 -
Sota Kitano Luzern Aktiv 122 / 105 40% 1 09.11.2026 -
Fernando Mimbacas Juventud Aktiv 101 / 107 40% 1 07.11.2026 -
Tomás Fernández Aldosivi Aktiv 118 / 114 40% 1 06.11.2026 -
Rafael Navarro St. Louis CITY SC Aktiv 133 / 146 40% 5 04.11.2026 -
Rodrigo González Aldosivi Aktiv 131 / 125 40% 1 04.11.2026 -
Everton Bala Levski Aktiv 129 / 107 40% 1 03.11.2026 -
Alejandro Melo Cibalia Aktiv 115 / 111 40% 1 02.11.2026 Mehr Infos nötig
Mauro Valiente Estudiantes Aktiv 122 / 107 40% 1 02.11.2026 -
Juan Salas Patronato Aktiv 115 / 111 40% 1 02.11.2026 Mehr Infos nötig
Juan Infante Atlético Tucumán Aktiv 120 / 112 40% 1 02.11.2026 Mehr Infos nötig
Bruno Nasta San Miguel Aktiv 115 / 122 40% 1 31.10.2026 -
Martín Giménez Defensores Unidos Aktiv 106 / 121 40% 1 29.10.2026 -
Victor Adeboyejo Ismaily Aktiv 89 / 118 40% 2 26.10.2026 -
Leandro Lozano Boca Juniors Aktiv 115 / 114 40% 1 26.10.2026 -
Fabricio Rojas Gimnasia y Tiro Aktiv 117 / 104 40% 1 25.10.2026 -
Ezequiel Almirón Estudiantes Aktiv 111 / 121 40% 1 25.10.2026 -
Agustín Paz Progreso Aktiv 116 / 112 40% 1 25.10.2026 -
Juergen Elitím Bohemians 1905 Aktiv 114 / 116 40% 1 23.10.2026 -
Víctor Ríos Atlas Aktiv 97 / 122 40% 1 23.10.2026 -
Jonás Luna Santa Clara Aktiv 102 / 130 40% 3 20.10.2026 -
Gustavo Turraca All Boys Aktiv 114 / 111 40% 1 20.10.2026 -
Facundo Castet Colón Aktiv 105 / 109 40% 1 20.10.2026 -
Sead Hakšabanović Malmo FF Aktiv 104 / 100 40% 1 20.10.2026 -
Marcelo Torres Gimnasia La Plata Aktiv 130 / 124 40% 2 19.10.2026 -
Tomás Chancalay Minnesota United FC Aktiv 126 / 115 40% 2 19.10.2026 -
Matías Fernández Independiente Rivadavia Aktiv 120 / 108 40% 1 18.10.2026 -
Nico López Platense Aktiv 120 / 129 40% 1 16.10.2026 -
Federico Bisanz Atlanta Aktiv 115 / 125 40% 1 15.10.2026 -
Nikita Iosifov Viktoria Plzen Aktiv 109 / 131 40% 1 12.10.2026 -
Santiago Longo Belgrano Aktiv 119 / 114 40% 1 12.10.2026 -
Matías Sosa Arsenal Aktiv 122 / 99 40% 1 10.10.2026 -
Agustín Gallo Tristán Suárez Aktiv 118 / 99 40% 1 09.10.2026 -
Santiago González Tigre Aktiv 119 / 135 40% 1 08.10.2026 -
Axel Pérez NK Domzale Aktiv 86 / 92 40% 1 05.10.2026 -
Pedro Ramírez Deportivo Riestra Aktiv 113 / 113 40% 1 05.10.2026 -
Kevin Kelsy Portland Timbers Aktiv 96 / 133 40% 1 03.10.2026 -
Juan Cruz Martins Jihlava Aktiv 109 / 81 40% 2 01.10.2026 -
Javi Zarzo Petrolul Aktiv 100 / 106 40% 1 01.10.2026 -
Ruben van Bommel Ferencvaros Aktiv 146 / 152 40% 1 30.09.2026 -
Louis Munteanu DC United Aktiv 123 / 110 40% 2 28.09.2026 -
Luis Ramos Alianza Lima Aktiv 104 / 115 40% 1 28.09.2026 -
Ibrahim Aliyu Houston Dynamo Aktiv 137 / 105 40% 1 28.09.2026 -
Guilherme Ankaragucu Aktiv 117 / 103 40% 1 25.09.2026 -
Richard Torales Guarani Aktiv 112 / 102 40% 1 23.09.2026 -
Kévin Denkey FC Cincinnati Aktiv 117 / 113 40% 3 22.09.2026 -
Heung-Min Son Los Angeles Football Club Aktiv 164 / 145 40% 1 22.09.2026 -
Timo Werner San Jose Earthquakes Aktiv 134 / 125 40% 1 22.09.2026 -
Lucas González Estudiantes Aktiv 118 / 99 40% 1 20.09.2026 -
Alan Cisnero Shukura Aktiv 81 / 102 40% 1 19.09.2026 -
Darren Yapi Colorado Rapids Aktiv 112 / 98 40% 1 19.09.2026 -
Felipe Mora San Luis Aktiv 127 / 133 40% 1 19.09.2026 -
Morgan Guilavogui Real Salt Lake Aktiv 130 / 132 40% 1 19.09.2026 -
Sam Surridge Nashville SC Aktiv 117 / 118 40% 1 18.09.2026 -
Antoine Griezmann Orlando City Aktiv 147 / 149 40% 1 18.09.2026 -
Adalberto Peñaranda Deportivo Tachira Aktiv 104 / 102 40% 2 14.09.2026 -
Agustín Anello Philadelphia Union Aktiv 110 / 132 40% 1 14.09.2026 -
Luis Alberto Márquez Orebro Aktiv 102 / 89 40% 1 14.09.2026 -
Ignacio Giacinti Patronato Aktiv 101 / 110 40% 1 12.09.2026 -
Josh Sargent Toronto FC Aktiv 135 / 112 40% 1 12.09.2026 -
Luis Palma Lech Aktiv 132 / 121 40% 1 11.09.2026 -
Dejan Joveljić Seattle Sounders Aktiv 113 / 132 40% 1 08.09.2026 -
Bénie Traoré New York City Aktiv 144 / 120 40% 1 07.09.2026 -
Tomás González Piast Aktiv 98 / 95 40% 1 06.09.2026 -
Tadeo Allende Inter Miami CF Aktiv 111 / 107 40% 1 05.09.2026 -
Gary Tello Dinamo Minsk Aktiv 104 / 99 40% 1 05.09.2026 -
Wessam Abou Ali Columbus Crew Aktiv 127 / 127 40% 2 04.09.2026 -
Ray Sandoval Cienciano Aktiv 104 / 103 40% 1 03.09.2026 -
Alan Pulido Guadalajara Aktiv 124 / 141 40% 1 03.09.2026 -
José Rivas Gamboa Trujillanos Aktiv 97 / 92 40% 1 31.08.2026 -
Duncan McGuire Houston Dynamo Aktiv 133 / 128 40% 1 31.08.2026 -
Armindo Sieb Los Angeles Football Club Aktiv 112 / 112 40% 1 30.08.2026 -
Juan Moreno Teplice Aktiv 88 / 88 40% 1 30.08.2026 -
Felipe Vizeu Sporting Cristal Aktiv 107 / 119 40% 3 28.08.2026 -
Junior Paredes Trujillanos Aktiv 106 / 114 40% 1 28.08.2026 -
Derrick Etienne Jr. Toronto FC Aktiv 102 / 102 40% 1 26.08.2026 -
Hansel Zapata Botev Plovdiv Aktiv 119 / 127 40% 1 26.08.2026 -
Pablo Fernández Sol de America Aktiv 84 / 101 40% 1 23.08.2026 -
Lucas Sergi Lokomotiv Plovdiv Aktiv 77 / 81 40% 1 22.08.2026 -
Rubén Rojas Portuguesa Aktiv 118 / 97 40% 1 22.08.2026 -
Lucio Castillo Colegiales Aktiv 111 / 120 40% 1 21.08.2026 -
Roy Castillo OB Aktiv 113 / 88 40% 1 21.08.2026 -
Ronaldo Peña Deportivo Lara Aktiv 90 / 89 40% 1 19.08.2026 -
Job Ochieng Real Sociedad Aktiv 97 / 127 40% 1 19.08.2026 -
Milan Iloski Philadelphia Union Aktiv 124 / 105 40% 1 18.08.2026 -
Myrto Uzuni Austin FC Aktiv 146 / 140 40% 1 16.08.2026 -
Maurice Malone Minnesota United FC Aktiv 138 / 109 40% 1 13.08.2026 -
Ignacio Pereira Brondby Aktiv 109 / 87 40% 1 13.08.2026 -
Agustín Bianciotti Metropolitanos Aktiv 93 / 112 40% 1 11.08.2026 -
Ángel Espínola Sportivo Luqueno Aktiv 106 / 111 40% 1 09.08.2026 -
James Pantemis Portland Timbers Aktiv 100 / 109 40% 1 08.08.2026 -
Diego Romero Universitario Aktiv 116 / 122 40% 1 07.08.2026 -
Lautaro Amadé Defensa y Justicia Aktiv 115 / 107 40% 1 07.08.2026 -
Juan Carlos Castellano Deportivo La Guaira Aktiv 105 / 103 40% 1 06.08.2026 -
Cristian Carbajal Alianza Lima Aktiv 103 / 109 40% 1 06.08.2026 -
Lautaro Lusnig Deportivo Tachira Aktiv 118 / 97 40% 1 04.08.2026 -
Matt Freese New York City Aktiv 108 / 129 40% 1 03.08.2026 -
Francisco Castillo Llaneros Aktiv 87 / 97 40% 1 03.08.2026 -
Matías Rojas Libertad Aktiv 137 / 115 40% 1 03.08.2026 -
Alan Soñora Cerro Porteno Aktiv 112 / 112 40% 1 03.08.2026 -
Óscar Valentín Rayo Vallecano Aktiv 128 / 127 40% 1 02.08.2026 -